Hovedside
METAR-TAF:

METAR-TAF

Lufthavner :

Bowers Field

Ellensburg, Washington, USA

breddegrad: 47-02-01N, lengdegrad: 120-31-45W, høyde over havet: 536 m

Gjeldene værobservasjon

Denne rapporten ble laget for 1 time og 10 minutter siden, klokken 07:53 UTC
Flau vind
Temperatur -3°C
Luftfuktighet 74%
Trykk 1027 hPa
Sikt: 16.1 km
Skyfri himmel

METAR: KELN 180753Z AUTO 00000KT 10SM CLR M03/M07 A3034 RMK AO2 SLP287 T10331067 401001050

Tid: 01:03 (09:03 UTC)


TAF: fraværende

Værobservasjoner og værvarsel for over 4000 flyplasser (METAR- og TAF-rapporter).

Tilgjengelige stasjoner er representert av de røde og gule prikkene på kartet.

Hold musepekeren over prikken for å se navnet på stasjonen.

Klikk så for å se værobservasjoner og -varsler.

For å forandre kartet kan du klikke på den grønne knappen med svart kryss for å zoome inn, på den grønne knappen med strek for å zoome ut, eller på de grønne pilene for å se tilstøtende kart.


METAR-TAF: